This is the latest recevied weather packets stored in our database for station/object KC8BSD. If no packets are shown the sender has not sent any weather packets the latest 10 day(s).
| Time | Temp. | Humidity | Pressure | Rain* | Wind** | Luminosity | Snow |
|---|---|---|---|---|---|---|---|
| 1778023846 | 11.67° C | 45% | 1009.2 hPa | 0 mm | - | 26 W/m² | - |
| 1778023544 | 11.67° C | 45% | 1008.8 hPa | 0 mm | - | 39 W/m² | - |
| 1778023241 | 11.67° C | 45% | 1008.9 hPa | 0 mm | - | 27 W/m² | - |
| 1778022938 | 11.67° C | 46% | 1008.9 hPa | 0 mm | - | 35 W/m² | - |
| 1778022637 | 11.67° C | 46% | 1008.7 hPa | 0 mm | - | 38 W/m² | - |
| 1778022334 | 11.67° C | 46% | 1008.9 hPa | 0 mm | - | 40 W/m² | - |
| 1778022030 | 11.67° C | 51% | 1008.7 hPa | 0 mm | - | 44 W/m² | - |
| 1778021727 | 12.22° C | 51% | 1008.9 hPa | 0 mm | - | 54 W/m² | - |
| 1778021423 | 12.22° C | 51% | 1008.9 hPa | 0 mm | - | 69 W/m² | - |
| 1778021120 | 12.22° C | 51% | 1008.9 hPa | 0 mm | - | 62 W/m² | - |
| 1778020817 | 12.22° C | 52% | 1009 hPa | 0 mm | - | 67 W/m² | - |
| 1778020515 | 12.22° C | 50% | 1009 hPa | 0 mm | - | 81 W/m² | - |
| 1778020211 | 12.22° C | 53% | 1009 hPa | 0 mm | - | 83 W/m² | - |
| 1778019907 | 12.22° C | 51% | 1009 hPa | 0 mm | - | 83 W/m² | - |
| 1778019603 | 12.22° C | 52% | 1009.3 hPa | 0 mm | - | 88 W/m² | - |
| 1778019300 | 12.22° C | 51% | 1009.2 hPa | 0 mm | - | 89 W/m² | - |
| 1778018997 | 12.22° C | 51% | 1009.2 hPa | 0 mm | - | 88 W/m² | - |
| 1778018694 | 12.22° C | 50% | 1008.9 hPa | 0 mm | - | 99 W/m² | - |
| 1778018391 | 12.22° C | 51% | 1008.8 hPa | 0 mm | - | 113 W/m² | - |
| 1778018090 | 12.78° C | 51% | 1008.9 hPa | 0 mm | - | 103 W/m² | - |
| 1778017787 | 12.22° C | 54% | 1008.8 hPa | 0 mm | - | 111 W/m² | - |
| 1778017485 | 12.22° C | 53% | 1008.9 hPa | 0 mm | - | 90 W/m² | - |
| 1778017182 | 12.22° C | 54% | 1008.8 hPa | 0 mm | - | 92 W/m² | - |
| 1778016880 | 12.22° C | 53% | 1009.2 hPa | 0 mm | - | 79 W/m² | - |
| 1778016576 | 12.22° C | 51% | 1009.2 hPa | 0 mm | - | 80 W/m² | - |
* Rain latest hour (hover to see other rain measurements)
** Current wind speed in m/s (hover to see current wind gust speed)